Regional Weather Roundup
Issued by NWS Northern Indiana

Home | Current Version | Previous Version | Graphics & Text | Print | Product List | Glossary On
Versions: 1 2 3 4 5 6 7 8 9 10 11 12 13 14 15 16 17 18 19 20 21 22 23 24 25 26 27 28 29 30 31 32 33 34 35 36 37 38 39 40 41 42 43 44 45 46 47 48 49 50
000
ASUS43 KIWX 010010
RWRIWX

KIWX WEATHER ROUNDUP
NATIONAL WEATHER SERVICE NORTHERN INDIANA
800 PM EDT THU JUL 31 2014

NOTE: "FAIR" INDICATES FEW OR NO CLOUDS BELOW 12,000 FEET WITH NO
SIGNIFICANT WEATHER AND/OR OBSTRUCTIONS TO VISIBILITY.

* THESE STATIONS ARE NOT UNDER NWS QUALITY CONTROL. THEY ALSO MAY NOT
  REPORT WEATHER SUCH AS PRECIPITATION OR FOG.

INZ001>027-010100-
NORTHERN INDIANA

CITY           SKY/WX    TMP DP  RH WIND       PRES   REMARKS
GARY*          MOSUNNY   79  59  50 SW12      30.03S
VALPARAISO     SUNNY     77  60  55 SW12      30.05R
6HR MIN TEMP:  77; 6HR MAX TEMP:  83;

MICHIGAN CITY* CLOUDY    73  61  64 S5        30.03S
LAPORTE*       PTSUNNY   68  63  83 CALM      30.05R
6HR MIN TEMP:  66; 6HR MAX TEMP:  81; 6HR PCP:  0.35;

KNOX*          MOSUNNY   70  62  76 CALM      30.03F
6HR MIN TEMP:  44; 6HR MAX TEMP:  86;

SOUTH BEND     MOSUNNY   74  59  59 SW7       30.04F
6HR MIN TEMP:  74; 6HR MAX TEMP:  84;

ELKHART*       PTSUNNY   75  55  50 W7        30.05R
GOSHEN         CLOUDY    75  59  57 SW8       30.05R
6HR MIN TEMP:  75; 6HR MAX TEMP:  83;

MONTICELLO*    SUNNY     75  64  68 CALM      30.05S
6HR MIN TEMP:  75; 6HR MAX TEMP:  79;

LOGANSPORT*    SUNNY     73  63  68 CALM      30.07R
ROCHESTER*     MOSUNNY   79  59  50 SW7       30.06S
WARSAW*        CLOUDY    70  64  83 SW3       30.06S
ANGOLA*        CLEAR     79  73  83 CALM      30.05R
FORT WAYNE     PTCLDY    77  60  55 W7        30.06R
6HR MIN TEMP:  77; 6HR MAX TEMP:  81;

HUNTINGTON*    PTCLDY    76  60  59 SW5       30.05S
6HR MIN TEMP:  76; 6HR MAX TEMP:  81;

PERU/GRISSOM   SUNNY     76  65  69 W7        30.06S
6HR MIN TEMP:  76; 6HR MAX TEMP:  81;

MARION*        CLEAR     74  59  60 SW5       30.08S
6HR MIN TEMP:  32; 6HR MAX TEMP:  89;


$$
INZ028>050-010100-
CENTRAL INDIANA

CITY           SKY/WX    TMP DP  RH WIND       PRES   REMARKS
LAFAYETTE      SUNNY     76  64  66 CALM      30.06R
6HR MIN TEMP:  76; 6HR MAX TEMP:  80;

KOKOMO*        CLEAR     75  61  60 W5        30.07R
6HR MIN TEMP:  75; 6HR MAX TEMP:  81;

MUNCIE*        CLEAR     75  59  57 W5        30.07S
6HR MIN TEMP:  75; 6HR MAX TEMP:  80;

INDIANAPOLIS   PTCLDY    76  59  55 W7        30.07S
6HR MIN TEMP:  76; 6HR MAX TEMP:  80;


$$
MIZ043>046-050>051-056>058-064>065-071>073-077>080-010100-
SOUTHWEST LOWER MICHIGAN

CITY           SKY/WX    TMP DP  RH WIND       PRES   REMARKS
BATTLE CREEK   CLEAR     75  59  57 W5        30.05R
6HR MIN TEMP:  75; 6HR MAX TEMP:  80;

BENTON HARBOR  MOSUNNY   76  56  49 S5        30.02S
6HR MIN TEMP:  76; 6HR MAX TEMP:  80;

COLDWATER*     CLEAR     76  59  56 W3        30.04S
6HR MIN TEMP:  76; 6HR MAX TEMP:  82;

HILLSDALE*     CLEAR     75  58  56 W5        30.05S
6HR MIN TEMP:  75; 6HR MAX TEMP:  79;

HOLLAND        SUNNY     77  60  55 SW7       30.02S
6HR MIN TEMP:  74; 6HR MAX TEMP:  79;

GRAND RAPIDS   MOSUNNY   76  61  59 SW9       30.02S
6HR MIN TEMP:  74; 6HR MAX TEMP:  81;

KALAMAZOO      CLEAR     77  57  50 W3        30.04R
6HR MIN TEMP:  77; 6HR MAX TEMP:  81;

STURGIS*       PTCLDY    75  61  60 CALM      30.04S
THREE RIVERS*  FAIR      78  61  55 CALM      30.04S
6HR MIN TEMP:  78; 6HR MAX TEMP:  83;


$$
OHZ001>008-015>018-024>025-010100-
NORTHWEST OHIO

CITY           SKY/WX    TMP DP  RH WIND       PRES   REMARKS
WAUSEON*       FAIR      75  61  60 CALM      30.04S
DEFIANCE       CLOUDY    72  62  71 CALM      30.05S
6HR MIN TEMP:  72; 6HR MAX TEMP:  83; 6HR PCP: TRACE;

FINDLAY        CLEAR     77  58  51 SW7       30.05R
6HR MIN TEMP:  77; 6HR MAX TEMP:  83;

TOLEDO EXPRESS PTCLDY    74  62  66 W3        30.04R
6HR MIN TEMP:  71; 6HR MAX TEMP:  83; 6HR PCP:  0.02;

TOLEDO METCALF LGT RAIN  75  61  61 W9        30.04R
6HR MIN TEMP:  75; 6HR MAX TEMP:  83; 6HR PCP: TRACE;

LIMA           CLEAR     77  60  55 SW5       30.07R
6HR MIN TEMP:  77; 6HR MAX TEMP:  81;


$$
&&



USA.gov is the U.S. government's official web portal to all federal, state and local government web resources and services.